Regional Weather Roundup
Issued by NWS Charleston, SC

Current Version | Previous Version | Graphics & Text | Print | Product List | Glossary On
Versions: 1 2 3 4 5 6 7 8 9 10 11 12 13 14 15 16 17 18 19 20 21 22 23 24 25 26 27 28 29 30 31 32 33 34 35 36 37 38 39 40 41 42 43 44 45 46 47 48 49 50
000
ASUS42 KCHS 281112
RWRCHS

REGIONAL WEATHER ROUNDUP
NATIONAL WEATHER SERVICE CHARLESTON SC
700 AM EDT TUE APR 28 2015

NOTE: "FAIR" INDICATES FEW OR NO CLOUDS BELOW 12,000 FEET WITH NO
SIGNIFICANT WEATHER AND/OR OBSTRUCTIONS TO VISIBILITY.

NOT ALL STATIONS ARE QUALITY CONTROLLED BY THE NATIONAL
WEATHER SERVICE. USE DATA WITH CAUTION...ESPECIALLY
DEWPOINT OBSERVATIONS.

SCZ027-030-031-034>040-042>050-281200-
...SOUTHEAST SOUTH CAROLINA...

CITY           SKY/WX    TMP DP  RH WIND       PRES   REMARKS
N CHARLESTON   MOCLDY    55  39  54 NE7       29.93R
WATERFRONT PRK NOT AVBL
MOUNT PLEASANT FAIR      55  39  54 MISG      29.92S
PINOPOLIS      NOT AVBL
MONCKS CORNER  FAIR      50  46  87 CALM      29.94S
SUMMERVILLE    FAIR      52  43  71 CALM      29.94S
BEAUFORT MCAS  CLOUDY    59  39  47 NE10      29.91S
BEAUFORT ARPT  FAIR      61  43  51 NE12G21   29.91R
HILTON HEAD IS CLEAR     63  43  48 NE12G21   29.92R
WALTERBORO     CLOUDY    52  41  66 NE7       29.93S
ALLENDALE      FAIR      55  41  58 CALM      29.91S

...SOUTHERN MIDLANDS AND PEE DEE...

CITY           SKY/WX    TMP DP  RH WIND       PRES   REMARKS
GEORGETOWN     NOT AVBL
KINGSTREE      NOT AVBL
ORANGEBURG     CLOUDY    50  42  74 NE5       29.94S
BARNWELL       FAIR      54  43  66 E5        29.94R
AIKEN          FAIR      48  37  66 NE3       29.97R
MANNING        FAIR      45  21  39 CALM      29.95R
COLUMBIA       CLOUDY    50  42  74 CALM      29.95R
SUMTER         MOCLDY    48  42  79 NE5       29.94R
FLORENCE       PTCLDY    46  40  79 N6        29.95R
MYRTLE BEACH   CLEAR     52  37  58 N6        29.95S
N MYRTLE BEACH PTCLDY    49  39  68 N6        29.94R

$$

GAZ063-065-086>088-099>101-113>116-118-119-134>141-150-281200-
...SOUTHEAST GEORGIA...

CITY           SKY/WX    TMP DP  RH WIND       PRES   REMARKS
SAVANNAH ARPT  CLOUDY    57  47  69 NE9       29.91R
HUNTER AAF     CLOUDY    60  53  77 NE8       29.88R
FORT STEWART   CLOUDY    61  59  94 NE10      29.88R FOG
STATESBORO       N/A     56  46  69 E5        29.92R
SYLVANIA       CLOUDY    55  46  72 E6        29.93R
CLAXTON        FAIR      55  52  88 E8        29.91R

...CSRA...CENTRAL AND FAR SOUTHEAST GEORGIA...

CITY           SKY/WX    TMP DP  RH WIND       PRES   REMARKS
THOMSON        CLOUDY    55  45  67 CALM      29.97S
AUGUSTA-BUSH   CLOUDY    52  42  69 NE3       29.93R
AUGUSTA-DANIEL CLOUDY    57  37  47 E6        29.94R
SWAINSBORO     NOT AVBL
VIDALIA        CLOUDY    61  59  94 NE8       29.89R
EASTMAN        PTSUNNY   58  58 100 CALM      29.91R
HAZLEHURST     CLOUDY    64  64 100 SE3       29.87R
ALMA           CLOUDY    63  60  90 CALM      29.87R
WAYCROSS       CLOUDY    66  64  91 CALM      29.86R
JESUP          CLOUDY    64  63  94 CALM      29.88R
BAXLEY         CLOUDY    63  63 100 CALM      29.87R
BRUNSWICK      CLOUDY    64  55  72 E5        29.88R
SAINT SIMONS   CLOUDY    68  51  54 E13       29.86R

$$

SCZ027-028-034-036>038-045-046-048>050-GAZ119-141-281200-
...LAKE AND SUPPLEMENTAL COASTAL OBSERVATIONS...

STATION/POSITION TIME  TEMP    WIND        PRES    WAVE   SWELL
                       AIR SEA DIR/SP/G            HT/PER HT/PER/DIR
                 (UTC) (F)     (DEG/KT/KT) (MB)    (FT/S) (FT/S/D)
UPR LAKE MARION  NOT AVBL
WINYAH BAY       NOT AVBL
LAKE MURRAY      1000   55      50/  1/  5 1013.2S
ACE BASIN NERRS  NOT AVBL
FORT PULASKI     1000   63 70   40/ 15/ 20 1012.0R
SAPELO ISLAND    1000   66      80/  3     1011.0S

$$

ANZ835-935-AMZ111-154-330-350-352-354-370-450-454-472-281200-
...C-MAN AND BUOY OBSERVATIONS...

STATION/POSITION TIME  TEMP    WIND        PRES    WAVE   SWELL
                       AIR SEA DIR/SP/G            HT/PER HT/PER/DIR
                 (UTC) (F)     (DEG/KT/KT) (MB)    (FT/S) (FT/S/D)
BUOY 41004       1050   65 72   30/ 17/ 21 1011.6S   5/ 5   2/ 9
BUOY 41008       1050   68 69   80/ 10/ 12 1011.4R   2/ 6   2/ 60/ 6
FOLLY BEACH CMAN 1100   61      30/ 16/ 20 1012.7F
CAPERS NEARSHORE 1008   63      40/ 17/ 21 1013.0R
FRIPP NEARSHORE  1000   65      60/ 19/ 25 1011.5


STATION/POSITION TIME  TEMP    WIND        PRES    WAVE   SWELL
                       AIR SEA DIR/SP/G            HT/PER HT/PER/DIR
                 (UTC) (F)     (DEG/KT/KT) (MB)    (FT/S) (FT/S/D)
5E ST. MARYS GA  1021      70                N/A     3/ 4
FRYING PAN BUOY  1050   63 71   20/ 16/ 19 1013.1R   5/ 5   2/ 80/ 7
BUOY 41025       1050   56 74  340/ 17/ 21 1011.6R   4/ 8   2/ 60/ 8
CAPE LOOKOUT NC  1100   52     350/ 14/ 15 1012.9R
BUOY 41002       1050   68 70  300/ 14/ 16 1010.5R   4/ 8   3/ 20/ 8
BUOY 41010       1020   73 79   50/ 10/ 14 1009.8R
ST AUGUSTINE FL  1100   72 69   90/ 10/ 11 1010.9R


$$



USA.gov is the U.S. government's official web portal to all federal, state and local government web resources and services.